Showing default

IRIDE-MS2-HEO-10, 68982

Orbit data source: Space-Track

IRIDE-MS2-HEO-10, 68982 is an Italian payload satellite in SSO that was launched on Sun, 03 May 2026 UTC via an FALCON 9 launch vehicle from the Air Force Western Test Range (AFWTR). Payload-class satellites include a variety of spacecraft equipped with specific instruments for various scientific and technological missions. These include communications satellites like Starlink; space stations such as the ISS; scientific satellites like the Hubble; Earth observation satellites from companies like Planet Labs, Umbra, and HawkEye 360; GPS; miniature CubeSats for education and research; and military/defense satellites.

Loading next visibility...
Identifier
68982, 2026-100C
Orbit
SSO
Country
Flag of ITIT
Related business
Manufacturer
ArgoTec
Mission
Operational spacecraft
Bus & Motor
HAWK, Unknown motor
Mass
65 kg wet, 65 kg dry
Launch date (UTC)
2026-05-03 (2 months ago)
Launch vehicle
FALCON 9
Launch site
Air Force Western Test Range (AFWTR)
Object type
Payload
Rocket body
Debris
Shape & HBR
Unknown shape, 14.5 m
Radar Cross Section
Medium (>0.1 m² and <1 m²)

Expand to show TLE details & history
Last TLE update: 14 hours ago

TLE from 14 hours ago
0 IRIDE-MS2-HEO-10
1 68982U 26100C   26175.20284440  .00001335  00000-0  13999-3 0  9993
2 68982  97.7331  72.4719 0005447 121.2112 238.9641 14.91173623  7743
Epoch: 2026-06-24T04:52Z
TLE epoch observation values (Epoch: 2026-06-24T04:52:05.756Z)
Latitude
Longitude
87.08448°
Altitude
599.277 km
Speed
7.559 km/s
True Right ascension
04h 49m 53s
True Declination
0° 00' 00"
Sunlit
Object was in daylight at epoch
Visualization orbit readout
Latitude
Unknown
Longitude
Unknown
Altitude
Unknown
Speed
Unknown
Apparent Right ascension
Unknown
Apparent Declination
Unknown
Sunlit
N/A
Visualization observer readout
Local Sidereal Time
06:03:23
Azimuth
Unknown
Elevation
Unknown
Doppler factor
Unknown
Orbital elements
Apogee altitude
595.09 km
Perigee altitude
587.497 km
Semi-major axis
6,969.43 km
Eccentricity
0.00054
Inclination
97.7331°
RAAN
72.4719°
Arg. of periapsis
121.2112°
True anomaly
238.91064°
Mean anomaly
238.9641°
Eccentric anomaly
238.93737°
Mean motion
3.73033 °/min
Orbital period
96.51 mins
BSTAR
0.00013999
Loading maneuver chart data...
Computing Atmospheric mass density...
Loading historical data...
Loading historical data...
Loading historical data...
Loading historical data...
Loading historical data...
Loading historical data...
Loading historical data...

Documentation

Showing up to 5 results
|